When you browse on this site, cookies collect data to enhance your experience and personalize the content and advertising you see.
Visit our Privacy Policy to learn more. By continuing to use the site, you agree to this use of cookies and data.
  • In Romania
  • List of Countries
  • For 7 days
  • Water Temperature
  • Satellite Maps
  • Weather Map
  • Weather Widgets
  • user-avatar
    Login

    Hourly Weather Port-au-Princ

    Today, 22 March, Friday

    Time Temperature Precipitation Wind Pressure Humidity
    00:00 +25°C° 0.1 mm 1 mps 736 mmHg 78%
    01:00 +25°C° 0 mm 1 mps 736 mmHg 80%
    02:00 +25°C° 0.2 mm 1 mps 736 mmHg 80%
    03:00 +25°C° 0.2 mm 1 mps 736 mmHg 80%
    04:00 +25°C° 0.2 mm 1 mps 736 mmHg 81%
    05:00 +25°C° 0.1 mm 1 mps 736 mmHg 79%
    06:00 +25°C° 0.1 mm 1 mps 736 mmHg 77%
    07:00 +26°C° 0 mm 1 mps 737 mmHg 73%
    08:00 +27°C° 0.2 mm 1 mps 737 mmHg 67%
    09:00 +28°C° 0.2 mm 1 mps 737 mmHg 61%
    10:00 +30°C° 0.2 mm 1 mps 737 mmHg 55%
    11:00 +30°C° 0.2 mm 2 mps 737 mmHg 56%
    12:00 +30°C° 0.2 mm 3 mps 737 mmHg 57%
    13:00 +30°C° 0.2 mm 3 mps 737 mmHg 57%
    14:00 +29°C° 0.3 mm 3 mps 736 mmHg 59%
    15:00 +29°C° 0.3 mm 3 mps 736 mmHg 61%
    16:00 +29°C° 0.3 mm 3 mps 736 mmHg 63%
    17:00 +28°C° 0.3 mm 3 mps 736 mmHg 67%
    18:00 +27°C° 0.3 mm 2 mps 736 mmHg 72%
    19:00 +26°C° 0.3 mm 2 mps 736 mmHg 76%
    20:00 +25°C° 0.2 mm 1 mps 737 mmHg 76%
    21:00 +25°C° 0.2 mm 1 mps 737 mmHg 77%
    22:00 +25°C° 0.2 mm 1 mps 737 mmHg 77%
    23:00 +23°C° 0.1 mm 0 mps 737 mmHg 77%

    Tomorrow, 23 March, Saturday

    Time Temperature Precipitation Wind Pressure Humidity
    00:00 +23°C° 0.1 mm 0 mps 737 mmHg 78%
    01:00 +23°C° 0.1 mm 0 mps 737 mmHg 78%
    02:00 +22°C° 0.1 mm 0 mps 737 mmHg 79%
    03:00 +22°C° 0.1 mm 0 mps 736 mmHg 79%
    04:00 +24°C° 0.1 mm 1 mps 736 mmHg 80%
    05:00 +25°C° 0 mm 1 mps 737 mmHg 78%
    06:00 +25°C° 0 mm 1 mps 737 mmHg 76%
    07:00 +25°C° 0 mm 1 mps 737 mmHg 74%
    08:00 +27°C° 0 mm 1 mps 738 mmHg 66%
    09:00 +29°C° 0 mm 1 mps 738 mmHg 57%
    10:00 +31°C° 0 mm 1 mps 739 mmHg 49%
    11:00 +31°C° 0 mm 1 mps 738 mmHg 47%
    12:00 +32°C° 0 mm 2 mps 738 mmHg 44%
    13:00 +34°C° 0 mm 2 mps 738 mmHg 42%
    14:00 +32°C° 0 mm 2 mps 737 mmHg 44%
    15:00 +31°C° 0 mm 3 mps 737 mmHg 47%
    16:00 +31°C° 0 mm 3 mps 736 mmHg 50%
    17:00 +29°C° 0.2 mm 3 mps 736 mmHg 56%
    18:00 +28°C° 0.2 mm 2 mps 737 mmHg 63%
    19:00 +27°C° 0.2 mm 2 mps 737 mmHg 69%
    20:00 +27°C° 0.1 mm 1 mps 738 mmHg 70%
    21:00 +26°C° 0.1 mm 1 mps 738 mmHg 71%
    22:00 +24°C° 0.1 mm 0 mps 738 mmHg 72%
    23:00 +24°C° 0 mm 0 mps 738 mmHg 73%

    Day after tomorrow, 24 March, Sunday

    Time Temperature Precipitation Wind Pressure Humidity
    00:00 +23°C° 0 mm 0 mps 738 mmHg 74%
    01:00 +23°C° 0 mm 0 mps 738 mmHg 75%
    02:00 +25°C° 0 mm 1 mps 737 mmHg 76%
    03:00 +25°C° 0 mm 1 mps 737 mmHg 77%
    04:00 +24°C° 0 mm 1 mps 737 mmHg 77%
    05:00 +25°C° 0 mm 1 mps 737 mmHg 75%
    06:00 +25°C° 0 mm 1 mps 737 mmHg 72%
    07:00 +26°C° 0 mm 1 mps 738 mmHg 69%
    08:00 +27°C° 0 mm 1 mps 738 mmHg 63%
    09:00 +29°C° 0 mm 1 mps 739 mmHg 56%
    10:00 +31°C° 0 mm 1 mps 739 mmHg 50%
    11:00 +32°C° 0.1 mm 1 mps 738 mmHg 48%
    12:00 +32°C° 0.1 mm 2 mps 738 mmHg 47%
    13:00 +34°C° 0.1 mm 2 mps 737 mmHg 45%
    14:00 +32°C° 0.6 mm 2 mps 737 mmHg 50%
    15:00 +30°C° 0.6 mm 2 mps 736 mmHg 55%
    16:00 +29°C° 0.6 mm 2 mps 736 mmHg 60%
    17:00 +29°C° 0.5 mm 2 mps 736 mmHg 63%
    18:00 +28°C° 0.5 mm 1 mps 736 mmHg 66%
    19:00 +27°C° 0.5 mm 1 mps 737 mmHg 68%
    20:00 +27°C° 0.3 mm 1 mps 737 mmHg 70%
    21:00 +26°C° 0.3 mm 1 mps 737 mmHg 72%
    22:00 +26°C° 0.3 mm 1 mps 738 mmHg 73%
    23:00 +26°C° 0.2 mm 1 mps 737 mmHg 74%

    25 March, Monday

    Time Temperature Precipitation Wind Pressure Humidity
    00:00 +25°C° 0.2 mm 1 mps 737 mmHg 75%
    01:00 +25°C° 0.2 mm 1 mps 736 mmHg 76%
    02:00 +25°C° 0.2 mm 1 mps 736 mmHg 76%
    03:00 +25°C° 0.2 mm 1 mps 736 mmHg 77%
    04:00 +24°C° 0.2 mm 1 mps 735 mmHg 77%
    05:00 +25°C° 0 mm 1 mps 736 mmHg 75%
    06:00 +25°C° 0 mm 1 mps 736 mmHg 73%
    07:00 +26°C° 0 mm 1 mps 737 mmHg 70%
    08:00 +27°C° 0 mm 1 mps 737 mmHg 61%
    09:00 +29°C° 0 mm 1 mps 737 mmHg 52%
    10:00 +31°C° 0 mm 1 mps 737 mmHg 42%
    11:00 +32°C° 0 mm 2 mps 737 mmHg 41%
    12:00 +32°C° 0 mm 2 mps 736 mmHg 40%
    13:00 +34°C° 0 mm 2 mps 736 mmHg 39%
    14:00 +32°C° 0.2 mm 2 mps 735 mmHg 42%
    15:00 +32°C° 0.2 mm 2 mps 735 mmHg 45%
    16:00 +31°C° 0.2 mm 2 mps 734 mmHg 48%
    17:00 +30°C° 0.2 mm 2 mps 735 mmHg 52%
    18:00 +29°C° 0.2 mm 2 mps 735 mmHg 57%
    19:00 +28°C° 0.2 mm 1 mps 735 mmHg 61%
    20:00 +28°C° 0.1 mm 1 mps 736 mmHg 64%
    21:00 +27°C° 0.1 mm 1 mps 736 mmHg 67%
    22:00 +26°C° 0.1 mm 1 mps 736 mmHg 70%
    23:00 +26°C° 0 mm 1 mps 736 mmHg 72%

    26 March, Tuesday

    Time Temperature Precipitation Wind Pressure Humidity
    00:00 +26°C° 0 mm 1 mps 736 mmHg 74%
    01:00 +23°C° 0 mm 0 mps 735 mmHg 75%
    02:00 +23°C° 0 mm 0 mps 735 mmHg 76%
    03:00 +23°C° 0 mm 0 mps 735 mmHg 77%
    04:00 +22°C° 0 mm 0 mps 734 mmHg 78%
    05:00 +25°C° 0 mm 1 mps 735 mmHg 76%
    06:00 +25°C° 0 mm 1 mps 735 mmHg 73%
    07:00 +26°C° 0 mm 1 mps 736 mmHg 70%
    08:00 +28°C° 0 mm 1 mps 736 mmHg 64%
    09:00 +29°C° 0 mm 1 mps 737 mmHg 57%
    10:00 +31°C° 0 mm 1 mps 737 mmHg 51%
    11:00 +31°C° 0.5 mm 2 mps 736 mmHg 51%
    12:00 +31°C° 0.5 mm 2 mps 736 mmHg 51%
    13:00 +31°C° 0.5 mm 3 mps 735 mmHg 51%
    14:00 +31°C° 0.9 mm 3 mps 735 mmHg 53%
    15:00 +31°C° 0.9 mm 3 mps 734 mmHg 55%
    16:00 +30°C° 0.9 mm 3 mps 734 mmHg 58%
    17:00 +29°C° 1.1 mm 2 mps 734 mmHg 63%
    18:00 +28°C° 1.1 mm 2 mps 735 mmHg 68%
    19:00 +27°C° 1.1 mm 1 mps 735 mmHg 73%
    20:00 +27°C° 0.7 mm 1 mps 736 mmHg 74%
    21:00 +26°C° 0.7 mm 1 mps 736 mmHg 75%
    22:00 +26°C° 0.7 mm 1 mps 736 mmHg 76%
    23:00 +26°C° 0.2 mm 1 mps 736 mmHg 77%

    27 March, Wednesday

    Time Temperature Precipitation Wind Pressure Humidity
    00:00 +25°C° 0.2 mm 1 mps 735 mmHg 78%
    01:00 +23°C° 0.2 mm 0 mps 735 mmHg 79%
    02:00 +23°C° 0.1 mm 0 mps 735 mmHg 80%
    03:00 +23°C° 0.1 mm 0 mps 735 mmHg 80%
    04:00 +23°C° 0.1 mm 0 mps 734 mmHg 81%
    05:00 +23°C° 0 mm 0 mps 735 mmHg 79%
    06:00 +23°C° 0 mm 0 mps 735 mmHg 78%
    07:00 +23°C° 0 mm 0 mps 736 mmHg 77%
    08:00 +27°C° 0.1 mm 1 mps 736 mmHg 71%
    09:00 +28°C° 0.1 mm 1 mps 736 mmHg 65%
    10:00 +29°C° 0.1 mm 2 mps 737 mmHg 60%
    11:00 +30°C° 0.7 mm 2 mps 736 mmHg 60%
    12:00 +30°C° 0.7 mm 3 mps 736 mmHg 60%
    13:00 +30°C° 0.7 mm 3 mps 735 mmHg 61%
    14:00 +30°C° 1.4 mm 3 mps 735 mmHg 62%
    15:00 +29°C° 1.4 mm 3 mps 735 mmHg 64%
    16:00 +29°C° 1.4 mm 3 mps 734 mmHg 66%
    17:00 +28°C° 1.3 mm 3 mps 735 mmHg 70%
    18:00 +27°C° 1.3 mm 3 mps 735 mmHg 75%
    19:00 +26°C° 1.3 mm 2 mps 736 mmHg 79%
    20:00 +26°C° 0.4 mm 2 mps 736 mmHg 80%
    21:00 +25°C° 0.4 mm 1 mps 736 mmHg 81%
    22:00 +25°C° 0.4 mm 1 mps 736 mmHg 82%
    23:00 +25°C° 0.1 mm 1 mps 736 mmHg 82%
    Show more